Weather History for Andalusia, AL

Change the Weather History Date:

Sunday, October 16, 2011

  Actual Average (KCEW) Record (KCEW)
Temperature  
Mean Temperature 72 °F -  
Max Temperature 90 °F 81 °F 91 °F (1990)
Min Temperature 54 °F 53 °F 36 °F (1978)
Cooling Degree Days 6    
Growing Degree Days 22 (Base 50)    
Moisture  
Dew Point 52 °F    
Average Humidity 60    
Maximum Humidity 83    
Minimum Humidity 24    
Precipitation  
Precipitation 0.01 in - - ()
Sea Level Pressure  
Sea Level Pressure 30.08 in    
Wind  
Wind Speed 1 mph (ESE)    
Max Wind Speed 6 mph    
Max Gust Speed -    
Visibility 10 miles    
Events      
Averages and records for this station are not official NWS values.
T = Trace of Precipitation, MM = Missing Value Source: NWS Daily Summary

Daily Weather History Graph

Daily Weather History Graph

Search for Another Location

Airport:

Trip Planner

Search our weather history database for the weather conditions in past years. The results will help you decide how hot, cold, wet, or windy it might be!

Date:

Astronomy

Oct. 16, 2011 Rise Set
Actual Time 6:48 AM CDT 6:12 PM CDT
Civil Twilight 6:24 AM CDT 6:37 PM CDT
Nautical Twilight 5:56 AM CDT 7:05 PM CDT
Astronomical Twilight 5:28 AM CDT 7:33 PM CDT
Moon 9:14 PM CDT (10/16) 10:49 AM CDT (10/16)
Length of Visible Light 12h 12m
Length of Day
11h 23m
Waning Gibbous, 82% of the Moon is Illuminated
Oct 16
Waning Gibbous
Oct 19
Last Quarter
Oct 26
New
Nov 2
First Quarter
Nov 10
Full

Hourly Weather History & Observations

Time (CDT) Temp. Heat Index Dew Point Humidity Pressure Visibility Wind Dir Wind Speed Gust Speed Precip Events Conditions
12:56 AM 59.0 °F - 53.1 °F 81% 30.11 in 10.0 mi Calm Calm - N/A   Clear
1:56 AM 57.0 °F - 51.1 °F 81% 30.10 in 10.0 mi Calm Calm - N/A   Clear
2:56 AM 57.0 °F - 51.1 °F 81% 30.10 in 10.0 mi Calm Calm - N/A   Clear
3:56 AM 55.0 °F - 50.0 °F 83% 30.10 in 10.0 mi Calm Calm - N/A   Clear
4:56 AM 55.0 °F - 48.9 °F 80% 30.11 in 10.0 mi Calm Calm - 0.01 in   Clear
5:56 AM 54.0 °F - 48.0 °F 80% 30.12 in 10.0 mi Calm Calm - N/A   Clear
6:56 AM 54.0 °F - 48.0 °F 80% 30.12 in 9.0 mi Calm Calm - N/A   Clear
7:56 AM 60.1 °F - 52.0 °F 75% 30.13 in 10.0 mi Calm Calm - N/A   Clear
8:56 AM 69.1 °F - 53.1 °F 57% 30.15 in 10.0 mi ESE 3.5 mph - N/A   Clear
9:56 AM 75.9 °F - 53.1 °F 45% 30.15 in 10.0 mi Variable 4.6 mph - N/A   Clear
10:56 AM 82.0 °F 81.2 °F 53.1 °F 37% 30.14 in 10.0 mi East 4.6 mph - N/A   Clear
11:56 AM 84.0 °F - 48.9 °F 29% 30.12 in 10.0 mi Variable 3.5 mph - N/A   Clear
12:56 PM 87.1 °F - 50.0 °F 28% 30.09 in 10.0 mi Variable 4.6 mph - N/A   Clear
1:56 PM 89.1 °F - 48.9 °F 25% 30.05 in 10.0 mi Variable 5.8 mph - N/A   Clear
2:56 PM 89.1 °F - 48.0 °F 24% 30.03 in 10.0 mi East 4.6 mph - N/A   Clear
3:56 PM 88.0 °F - 48.9 °F 26% 30.03 in 10.0 mi Calm Calm - N/A   Clear
4:56 PM 87.1 °F - 50.0 °F 28% 30.01 in 10.0 mi Calm Calm - N/A   Clear
5:56 PM 80.1 °F 80.0 °F 54.0 °F 40% 30.01 in 10.0 mi Calm Calm - N/A   Clear
6:56 PM 72.0 °F - 57.9 °F 61% 30.02 in 10.0 mi Calm Calm - N/A   Clear
7:56 PM 66.9 °F - 57.9 °F 73% 30.03 in 10.0 mi Calm Calm - N/A   Clear
8:56 PM 64.9 °F - 57.0 °F 75% 30.04 in 10.0 mi Calm Calm - N/A   Clear
9:56 PM 64.0 °F - 57.0 °F 78% 30.05 in 10.0 mi Calm Calm - N/A   Clear
10:56 PM 61.0 °F - 55.9 °F 83% 30.04 in 10.0 mi Calm Calm - N/A   Clear
11:56 PM 61.0 °F - 55.0 °F 81% 30.04 in 10.0 mi Calm Calm - N/A   Clear